Location: Newark
(50.4375°N, 16.6489°E)
Time: 18:04:44
(UTC+00:00)

OTV 5 (USA 277) - Visible Passes

Search period start: 17 October 2019 00:00
Search period end: 27 October 2019 00:00
Orbit: 310 x 324 km, 54.5° (Epoch: 08 October)

Date Brightness Start Highest point End Pass type
(mag) Time Alt. Az. Time Alt. Az. Time Alt. Az.
17 Oct ? 02:50:44 21° E 02:50:44 21° E 02:51:50 10° E visible
17 Oct ? 04:21:37 16° W 04:23:28 37° SW 04:26:02 10° SE visible
18 Oct ? 03:05:07 27° ESE 03:05:07 27° ESE 03:06:33 10° ESE visible
18 Oct ? 04:36:01 11° W 04:37:50 18° SW 04:39:48 10° S visible
19 Oct ? 03:19:36 26° SE 03:19:36 26° SE 03:21:02 10° SE visible
20 Oct ? 03:34:13 17° S 03:34:13 17° S 03:35:08 10° SSE visible
